Location: Krasnoyarskiy Pitomnik
(51.1333°N, 71.6167°E)
Time: 01:01:52
(UTC+00:00)

CZ-2D DEB - Pass Details

Date: 10 December 2025
Orbit: 551 x 569 km, 98.3° (Epoch: 20 January)

Event Time Altitude Azimuth Distance (km) Brightness Sun altitude
Rises 23:51:27 0° 135° (SE) 2,749 ? -29.2°
Reaches altitude 10° 23:53:46 10° 125° (SE) 1,853 ? -28.9°
Maximum altitude 23:57:14 29° 65° (ENE) 1,047 ? -28.3°
Enters shadow 23:58:14 26° 38° (NE) 1,138 ? -28.2°
